Regional Weather Roundup
Issued by NWS

Home | Current Version | Previous Version | Graphics & Text | Print | Product List | Glossary On
Versions: 1 2 3 4 5 6 7 8 9 10 11 12 13 14 15 16 17 18 19 20 21 22 23 24 25 26 27
000
ASUS45 KSLC 221710
RWRUT

UTAH REGIONAL WEATHER ROUNDUP
NATIONAL WEATHER SERVICE SALT LAKE CITY UT
1100 AM MDT THU JUN 22 2017

UTZ001>011-023>025-221800-

NORTHERN UTAH

CITY           SKY/WX    TMP DP  RH WIND       PRES   REMARKS
BRIGHAM CITY   SUNNY     74  35  24 N5        30.06S
HILL AFB       SUNNY     73  36  25 N8        30.08S
LOGAN          SUNNY     73  43  33 N5        30.07S
OGDEN          SUNNY     76  36  23 N8        30.06S
SALT LAKE CITY MOSUNNY   80  36  20 N16       30.05S
TOOELE VALLEY  SUNNY     77  45  31 N12       30.08R
WENDOVER       SUNNY     79  30  16 NE13      30.07F
HEBER CITY     SUNNY     77  41  27 CALM      30.07F
WEST JORDAN    SUNNY     77  45  32 NW17G24   30.08S

$$

UTZ011>015-024>027-221800-

CENTRAL/NORTHEAST UTAH

CITY           SKY/WX    TMP DP  RH WIND       PRES   REMARKS
PROVO AIRPORT  SUNNY     79  43  27 NW9       30.06R
MOAB/CANYONLAN SUNNY     93  31  11 VRB5      29.89R
DELTA          SUNNY     81  30  16 NW9       30.06S
PRICE          SUNNY     89  39  17 NW12      30.02S
ROOSEVELT      SUNNY     86  39  19 E5        29.97F
VERNAL         SUNNY     85  42  22 CALM      29.96S

$$

UTZ013>016-019>022-027-221800-

SOUTHERN UTAH

CITY           SKY/WX    TMP DP  RH WIND       PRES   REMARKS
BRYCE CANYON   MOSUNNY   81  27  14 W14G22    30.22S
CEDAR CITY     SUNNY     83  36  18 N5        30.09S
MILFORD        SUNNY     84  27  12 N17G24    30.07R
ST GEORGE      SUNNY     93  31  11 SW5       29.85
HANKSVILLE     SUNNY     91  27   9 CALM      29.92S
BLANDING       SUNNY     85  34  15 S5        30.11F

$$

REGIONAL REPORTS     COLORADO/ARIZONA

CITY           SKY/WX    TMP DP  RH WIND       PRES   REMARKS
CRAIG, CO      SUNNY     80  42  25 CALM      30.04F
GRAND JUNCTION SUNNY     85  39  19 S7        29.93F
RIFLE, CO      SUNNY     81  40  23 N5        29.99F
MONTROSE, CO   SUNNY     78  43  28 NW7       30.01F
CORTEZ, CO     SUNNY     89  37  16 SW20      30.05R
COLORADO CITY    N/A     95  32  11 NW7       30.02F HX  90
PAGE, AZ       SUNNY     94  29  10 E5        29.93S
GRAND CANYON   SUNNY     87  22   9 W9G22     30.17F
KINGMAN, AZ    SUNNY     99  34  10 S13       29.91S HX  93
FLAGSTAFF, AZ  SUNNY     86  28  12 W10G24    30.20S

$$

REGIONAL REPORTS    NEVADA/IDAHO/WYOMING

CITY           SKY/WX    TMP DP  RH WIND       PRES   REMARKS
LAS VEGAS, NV  SUNNY    101  26   7 CALM      29.78S HX  94
ELY, NY        SUNNY     77  36  22 N16       30.17F
ELKO, NV       SUNNY     74  32  21 S6        30.16F
POCATELLO, ID  SUNNY     67  40  37 W7        30.13S
BURLEY, ID     SUNNY     68  37  32 W9G20     30.12S
FORT BRIDGER,    N/A     74  31  20 NW12G21   30.18S
EVANSTON, WY   SUNNY     72  35  25 SW8G17    30.17S
ROCK SPRINGS,  SUNNY     72  30  21 SW12      30.10F
KEMMERER, WY     N/A     66  32  28 W15G22    30.18R

$$




USA.gov is the U.S. government's official web portal to all federal, state and local government web resources and services.